IK5NLA Vaiano IT current weather conditions

sailwx.info

Wind from 244 at 5 knots

Air temperature 10.6° C
Dewpoint 9.0° C

Last reported at 2017-Nov-23 18:01 UTC.
Time now 2017-Nov-23 18:33 UTC

Location: N 43°58' E 011°06'.
View on Google Maps.

See reports from other nearby stations

  
Tides and Currents Weather Stations Pressure Air Temp Water Temp Dewpoint Dewpoint Depression Visibility Wind Speed Wind Dir Waves Ship Positions
date/time (UTC)wind fromknots sea level pressurealtimeterstation pressurevisibilityair tempwater tempwave heightnotes
2017-Nov-23 18:01 244 5 10.6
2017-Nov-23 17:56 252 3 11.1
2017-Nov-23 17:51 331 2 11.1
2017-Nov-23 17:41 279 3 11.1
2017-Nov-23 17:31 279 4 11.1
2017-Nov-23 17:16 227 4 11.1
2017-Nov-23 17:06 271 3 11.1
2017-Nov-23 17:01 271 3 11.1
2017-Nov-23 16:56 277 2 11.1
2017-Nov-23 16:46 277 0 11.1
2017-Nov-23 16:36 277 0 10.6
2017-Nov-23 16:31 275 0 10.6
2017-Nov-23 16:21 275 0 10.6
2017-Nov-23 16:16 275 0 11.1
2017-Nov-23 16:12 275 1 11.1
2017-Nov-23 16:01 275 0 11.1
2017-Nov-23 15:51 275 0 10.6
2017-Nov-23 15:46 275 0 10.6
2017-Nov-23 15:41 275 10.6
2017-Nov-23 15:26 275 10.6
2017-Nov-23 15:21 275 10.6
2017-Nov-23 15:16 275 0 10.6
2017-Nov-23 15:01 275 10.6
2017-Nov-23 14:56 275 10.6
2017-Nov-23 14:51 275 10.6
2017-Nov-23 14:41 275 10.6
2017-Nov-23 14:31 275 10.6
2017-Nov-23 14:16 275 0 10.6
2017-Nov-23 14:11 275 11.1
2017-Nov-23 14:06 275 11.1
2017-Nov-23 13:51 275 0 11.1
2017-Nov-23 13:36 262 0 11.1
2017-Nov-23 13:31 261 0 10.6
2017-Nov-23 13:11 262 1 10.6
2017-Nov-23 13:06 261 0 10.6
2017-Nov-23 12:51 262 0 10.6
2017-Nov-23 12:46 261 0 10.6
2017-Nov-23 12:41 261 0 10.6
2017-Nov-23 12:36 262 0 10.6
2017-Nov-23 12:31 262 0 10.6
2017-Nov-23 12:26 261 0 10.6
2017-Nov-23 12:06 263 1 10.6
2017-Nov-23 12:01 263 1 10.6
2017-Nov-23 11:56 263 1 10.6
2017-Nov-23 11:36 263 4 10.6
2017-Nov-23 11:31 263 3 10.6
2017-Nov-23 11:26 254 3 10.6
2017-Nov-23 11:21 254 5 10.6
2017-Nov-23 11:16 217 5 10.6
2017-Nov-23 10:56 315 2 10.6
2017-Nov-23 10:46 316 1 10.6
2017-Nov-23 10:36 316 3 10.6
2017-Nov-23 10:16 316 1 10.6
2017-Nov-23 09:56 315 0 10.6
2017-Nov-23 09:51 316 10.6
2017-Nov-23 09:41 315 0 10.6
2017-Nov-23 09:21 315 10.6
2017-Nov-23 09:16 315 10.6
2017-Nov-23 09:11 316 10.6
2017-Nov-23 09:06 316 10.6
2017-Nov-23 09:01 316 10.6
2017-Nov-23 08:56 316 10.6
2017-Nov-23 08:51 315 10.6
2017-Nov-23 08:41 316 10.6
2017-Nov-23 08:36 315 10.6
2017-Nov-23 08:31 316 10.0
2017-Nov-23 08:26 316 10.0
2017-Nov-23 08:16 316 9.4
2017-Nov-23 08:11 315 9.4
2017-Nov-23 07:51 315 9.4
2017-Nov-23 07:41 315 9.4
2017-Nov-23 07:26 315 9.4
2017-Nov-23 07:16 316 8.9
2017-Nov-23 07:11 315 8.9
2017-Nov-23 07:06 316 8.9
2017-Nov-23 07:01 315 8.9
2017-Nov-23 06:56 316 8.9
2017-Nov-23 06:51 316 8.9
2017-Nov-23 06:46 315 8.9
2017-Nov-23 06:41 316 8.9
2017-Nov-23 06:31 315 8.9
2017-Nov-23 06:26 315 8.9
2017-Nov-23 06:16 316 8.9
2017-Nov-23 06:11 315 8.9
2017-Nov-23 06:01 316 8.9
2017-Nov-23 05:56 315 8.9
2017-Nov-23 05:51 315 8.9
2017-Nov-23 05:36 315 8.9
2017-Nov-23 05:26 316 8.9
2017-Nov-23 05:16 315 8.9
2017-Nov-23 05:06 316 9.4
2017-Nov-23 05:01 315 9.4
2017-Nov-23 04:56 316 8.9
2017-Nov-23 04:51 316 8.9
2017-Nov-23 04:46 316 8.9
2017-Nov-23 04:31 316 8.9
2017-Nov-23 04:26 316 8.9
2017-Nov-23 04:11 316 0 8.3
2017-Nov-23 03:41 280 8.9
2017-Nov-23 03:31 280 9.4
2017-Nov-23 03:11 280 1 9.4
2017-Nov-23 03:06 280 1 9.4
2017-Nov-23 02:51 280 1 9.4
2017-Nov-23 02:41 271 0 8.9
2017-Nov-23 02:31 271 2 8.9
2017-Nov-23 02:26 272 1 8.9
2017-Nov-23 02:16 273 8.9
2017-Nov-23 02:11 273 9.4
2017-Nov-23 01:51 273 9.4
2017-Nov-23 01:41 273 9.4
2017-Nov-23 01:36 273 0 9.4
2017-Nov-23 01:26 272 1 9.4
2017-Nov-23 01:16 273 9.4
2017-Nov-23 01:06 273 9.4
2017-Nov-23 00:56 273 10.0
2017-Nov-23 00:46 273 0 10.0
2017-Nov-23 00:41 273 1 10.0
2017-Nov-23 00:26 274 10.0
2017-Nov-23 00:16 273 0 10.0
2017-Nov-23 00:11 274 0 10.0
2017-Nov-23 00:06 273 0 10.0
2017-Nov-23 00:01 273 10.0
2017-Nov-22 23:56 273 10.0
2017-Nov-22 23:51 273 0 10.0
2017-Nov-22 23:46 273 1 10.0
2017-Nov-22 23:36 273 1 10.6
2017-Nov-22 23:26 275 1 10.6
2017-Nov-22 23:21 275 1 10.6
2017-Nov-22 23:01 272 1 10.0
2017-Nov-22 22:56 273 1 10.0
2017-Nov-22 22:51 273 1 10.0
2017-Nov-22 22:46 273 2 10.0
2017-Nov-22 22:41 273 1 10.0
2017-Nov-22 22:36 273 0 10.0
2017-Nov-22 22:31 270 0 10.0
2017-Nov-22 22:16 270 2 10.6
2017-Nov-22 22:11 270 2 10.6
2017-Nov-22 22:06 271 3 10.6
2017-Nov-22 22:01 271 2 10.6
2017-Nov-22 21:46 272 2 10.6
2017-Nov-22 21:41 273 3 10.6
2017-Nov-22 21:31 271 3 10.6
2017-Nov-22 21:21 271 3 10.6
2017-Nov-22 21:16 272 2 10.6
2017-Nov-22 21:01 272 2 10.6
2017-Nov-22 20:46 273 2 10.6
2017-Nov-22 20:41 273 1 10.6
2017-Nov-22 20:36 273 2 10.6
2017-Nov-22 20:31 273 2 10.6
2017-Nov-22 20:26 273 2 10.6
2017-Nov-22 20:11 273 2 10.6
2017-Nov-22 20:01 273 0 10.6
2017-Nov-22 19:36 275 10.6
2017-Nov-22 19:31 275 11.1
2017-Nov-22 19:26 275 11.1
2017-Nov-22 19:21 275 11.1
2017-Nov-22 19:11 275 11.1
2017-Nov-22 18:51 275 1 11.1
2017-Nov-22 18:46 273 1 11.1
2017-Nov-22 18:36 273 1 11.1
2017-Nov-22 18:31 273 1 11.1
2017-Nov-22 18:21 274 1 11.1
2017-Nov-22 18:16 274 1 11.1
2017-Nov-22 18:11 274 1 11.1
2017-Nov-22 18:01 274 1 11.1
2017-Nov-22 17:56 273 1 11.1
2017-Nov-22 17:51 274 1 11.1
2017-Nov-22 17:41 274 1 11.1
2017-Nov-22 17:36 274 1 11.1
2017-Nov-22 17:31 274 1 11.1
2017-Nov-22 17:26 274 0 11.1
2017-Nov-22 17:21 273 0 11.1
2017-Nov-22 17:16 274 0 11.1
2017-Nov-22 17:06 273 1 11.1
2017-Nov-22 17:01 273 1 11.1
2017-Nov-22 16:56 275 0 11.1
2017-Nov-22 16:52 275 0 11.1
2017-Nov-22 16:46 275 0 11.1
2017-Nov-22 16:36 275 0 11.1
2017-Nov-22 16:31 275 0 11.1
2017-Nov-22 16:26 275 1 11.1
2017-Nov-22 16:11 275 1 11.1
2017-Nov-22 16:06 275 0 11.1
2017-Nov-22 15:56 275 11.1
2017-Nov-22 15:46 275 0 11.1
2017-Nov-22 15:41 275 0 11.1
2017-Nov-22 15:36 275 1 11.1
2017-Nov-22 15:32 275 1 11.1
2017-Nov-22 15:26 275 1 11.1
2017-Nov-22 15:21 275 0 11.1
2017-Nov-22 15:06 275 1 11.1
2017-Nov-22 15:01 275 0 11.1
2017-Nov-22 14:56 275 0 11.1
2017-Nov-22 14:51 275 1 11.1
2017-Nov-22 14:46 275 1 11.1
2017-Nov-22 14:41 275 2 11.1
2017-Nov-22 14:36 275 3 11.1
2017-Nov-22 14:31 275 3 11.1
2017-Nov-22 14:21 275 1 11.1
2017-Nov-22 14:11 276 1 11.1
2017-Nov-22 14:06 276 1 11.1
2017-Nov-22 14:02 276 1 11.1
2017-Nov-22 13:56 276 1 11.1
2017-Nov-22 13:46 276 1 11.1
2017-Nov-22 13:36 276 1 11.1
2017-Nov-22 13:31 276 1 11.1
2017-Nov-22 13:21 276 0 11.1
2017-Nov-22 13:16 276 0 11.1
2017-Nov-22 13:11 276 0 11.1
2017-Nov-22 13:06 276 0 11.1
2017-Nov-22 13:01 276 11.1
2017-Nov-22 12:56 276 0 11.1
2017-Nov-22 12:46 276 2 11.1
2017-Nov-22 12:41 276 1 11.1
2017-Nov-22 12:36 276 1 11.1
2017-Nov-22 12:26 277 1 11.1
2017-Nov-22 12:21 277 1 11.1
2017-Nov-22 12:06 277 2 10.6
2017-Nov-22 12:01 277 1 10.6
2017-Nov-22 11:56 278 2 10.6
2017-Nov-22 11:51 278 3 10.6
2017-Nov-22 11:46 277 2 10.6
2017-Nov-22 11:41 277 3 10.6
2017-Nov-22 11:31 278 2 10.6
2017-Nov-22 11:16 252 3 10.6
2017-Nov-22 11:06 315 4 11.1
2017-Nov-22 11:01 315 2 11.1
2017-Nov-22 10:56 315 1 11.1
2017-Nov-22 10:46 315 3 10.6
2017-Nov-22 10:41 292 2 10.6
2017-Nov-22 10:36 293 3 10.6
2017-Nov-22 10:26 289 2 10.6
2017-Nov-22 10:21 288 1 10.6
2017-Nov-22 10:16 290 1 10.6
2017-Nov-22 10:01 290 3 10.6
2017-Nov-22 09:36 290 2 10.6
2017-Nov-22 09:26 290 10.0
2017-Nov-22 09:11 290 2 10.6
2017-Nov-22 08:46 291 0 10.0
2017-Nov-22 08:26 291 10.0
2017-Nov-22 08:21 291 0 10.0
2017-Nov-22 08:11 291 10.0
2017-Nov-22 08:06 291 10.0
2017-Nov-22 08:01 291 10.0
2017-Nov-22 07:46 291 10.0
2017-Nov-22 07:41 291 9.4
2017-Nov-22 07:21 291 9.4
2017-Nov-22 07:16 291 9.4
2017-Nov-22 07:11 291 9.4
2017-Nov-22 06:56 291 9.4
2017-Nov-22 06:51 291 9.4
2017-Nov-22 06:41 291 9.4
2017-Nov-22 06:16 292 9.4
2017-Nov-22 05:56 280 1 9.4
2017-Nov-22 05:51 280 9.4
2017-Nov-22 05:36 281 0 9.4
2017-Nov-22 05:21 276 2 8.9
2017-Nov-22 05:16 276 1 8.9
2017-Nov-22 05:11 276 8.9
2017-Nov-22 05:06 276 8.9
2017-Nov-22 05:01 276 8.9
2017-Nov-22 04:51 271 8.9
2017-Nov-22 04:46 271 8.9
2017-Nov-22 04:36 271 8.9
2017-Nov-22 04:26 271 0 9.4
2017-Nov-22 04:21 271 2 9.4
2017-Nov-22 04:11 272 2 9.4
2017-Nov-22 03:56 273 1 9.4
2017-Nov-22 03:51 272 0 9.4
2017-Nov-22 03:46 273 0 9.4
2017-Nov-22 03:41 272 0 9.4
2017-Nov-22 03:36 273 1 9.4
2017-Nov-22 03:16 269 8.9
2017-Nov-22 03:11 269 8.9
2017-Nov-22 03:06 268 8.9
2017-Nov-22 02:56 268 8.9
2017-Nov-22 02:41 269 8.9
2017-Nov-22 02:36 268 8.9
2017-Nov-22 02:31 269 8.9
2017-Nov-22 02:21 269 8.9
2017-Nov-22 02:16 269 8.9
2017-Nov-22 02:11 269 8.9
2017-Nov-22 02:06 269 9.4
2017-Nov-22 01:56 268 8.9
2017-Nov-22 01:46 268 0 9.4
2017-Nov-22 01:41 269 0 8.9
2017-Nov-22 01:36 268 0 8.9
2017-Nov-22 01:31 269 8.9
2017-Nov-22 01:21 269 8.9
2017-Nov-22 01:16 268 8.9
2017-Nov-22 01:11 269 0 8.9
2017-Nov-22 00:56 268 1 8.9
2017-Nov-22 00:51 268 2 8.9
2017-Nov-22 00:46 268 2 8.9
2017-Nov-22 00:41 268 3 8.9
2017-Nov-22 00:36 269 2 8.9
2017-Nov-22 00:16 269 8.3
2017-Nov-21 23:26 269 8.3
2017-Nov-21 23:21 269 8.3
2017-Nov-21 23:11 269 8.3
2017-Nov-21 23:06 269 8.3
2017-Nov-21 22:51 269 8.3
2017-Nov-21 22:41 269 8.3
2017-Nov-21 22:36 269 0 8.9
2017-Nov-21 22:31 269 1 8.9
2017-Nov-21 22:26 269 3 8.9
2017-Nov-21 22:11 269 3 8.3
2017-Nov-21 22:06 270 1 8.3
2017-Nov-21 21:56 269 8.3
2017-Nov-21 21:41 270 8.3
2017-Nov-21 21:36 269 8.3
2017-Nov-21 21:26 270 0 8.9
2017-Nov-21 21:21 269 1 8.9
2017-Nov-21 21:16 260 3 8.9
2017-Nov-21 21:11 261 4 8.9
2017-Nov-21 21:06 259 5 8.9
2017-Nov-21 20:56 263 2 8.9
2017-Nov-21 20:51 263 0 8.3
2017-Nov-21 20:36 264 3 8.9
2017-Nov-21 20:21 267 5 8.9
2017-Nov-21 20:16 269 3 8.9
2017-Nov-21 20:11 271 4 8.9
2017-Nov-21 20:01 273 5 8.9
2017-Nov-21 19:56 273 5 8.9
2017-Nov-21 19:51 275 3 8.9
2017-Nov-21 19:46 275 4 9.4
2017-Nov-21 19:41 275 6 9.4
2017-Nov-21 19:26 277 2 8.9
2017-Nov-21 19:16 277 0 8.9
2017-Nov-21 19:06 277 3 8.9
2017-Nov-21 19:01 277 3 8.9
2017-Nov-21 18:46 279 6 9.4
2017-Nov-21 18:41 281 5 8.9
2017-Nov-21 18:36 252 4 8.9
2017-Nov-21 18:31 252 5 8.9
2017-Nov-21 18:26 246 6 8.9
2017-Nov-21 18:21 220 5 8.9
2017-Nov-21 18:11 215 2 8.9
2017-Nov-21 18:06 202 0 8.9
2017-Nov-21 18:01 095 8.9